Location: ??
(35.4627°N, 139.3695°E)
Time: 14:48:55
(UTC+00:00)

CZ-4B DEB - Pass Details

Date: 25 November 2020
Orbit: 841 x 861 km, 99.1° (Epoch: 20 January)

Event Time Altitude Azimuth Distance (km) Brightness Sun altitude
Rises 20:36:20 0° 13° (NNE) 3,402 7.3 -10.7°
Reaches altitude 10° 20:38:42 10° 13° (NNE) 2,464 6.6 -10.2°
Maximum altitude 20:44:11 89° 280° (W) 847 4.2 -9.2°
Drops below altitude 10° 20:49:38 10° 195° (SSW) 2,456 6.7 -8.1°
Sets 20:51:59 0° 195° (SSW) 3,390 7.4 -7.7°
